Regional Weather Roundup
Issued by NWS

Home | Current Version | Previous Version | Graphics & Text | Print | Product List | Glossary On
Versions: 1 2 3 4 5 6 7 8 9 10 11 12 13 14 15 16 17 18 19 20 21 22 23 24 25 26 27 28 29 30 31 32 33 34 35 36 37 38 39 40 41 42 43 44 45 46 47 48 49 50
000
ASUS43 KBIS 260920
RWRND

NORTH DAKOTA REGIONAL WEATHER ROUNDUP
NATIONAL WEATHER SERVICE BISMARCK ND
400 AM CDT SAT JUL 26 2014

NOTE: "FAIR" INDICATES FEW OR NO CLOUDS BELOW 12,000 FEET WITH NO
SIGNIFICANT WEATHER AND/OR OBSTRUCTIONS TO VISIBILITY.


NDZ001>003-009>011-017-261000-
NORTHWEST NORTH DAKOTA

CITY           SKY/WX    TMP DP  RH WIND       PRES   REMARKS
WILLISTON      CLEAR     58  49  72 W12       29.85R
MINOT          CLEAR     59  50  72 SW10      29.77F
MINOT AFB      CLEAR     56  53  89 SW9       29.76F
$$

NDZ018>021-031>035-040>046-261000-
SOUTHWEST NORTH DAKOTA

CITY           SKY/WX    TMP DP  RH WIND       PRES   REMARKS
BISMARCK       CLEAR     61  52  72 S8        29.81F
DICKINSON      CLEAR     55  46  71 NW13      29.89R
GARRISON         N/A     56  53  90 NW9       29.82R
HETTINGER ARPT CLEAR     54  47  77 W8        29.90R
$$

NDZ004>008-012>016-024-026-027-054-261000-
NORTHEAST NORTH DAKOTA

CITY           SKY/WX    TMP DP  RH WIND       PRES   REMARKS
GRAND FORKS    CLEAR     59  55  87 S8        29.75F
GRND FRKS AFB  CLEAR     58  57  97 S8        29.75F
DEVILS LAKE    CLEAR     66  52  59 S16       29.73F
$$

NDZ022-023-025-028>030-036>039-047>053-261000-
SOUTHEAST NORTH DAKOTA

CITY           SKY/WX    TMP DP  RH WIND       PRES   REMARKS
FARGO          CLEAR     58  54  86 S7        29.79S
JAMESTOWN      CLEAR     57  54  89 S6        29.80F
$$




USA.gov is the U.S. government's official web portal to all federal, state and local government web resources and services.